{"data":{"norad_id":65386,"epoch":"2026-05-25T02:56:07.000800Z","epoch_age_seconds":54713,"freshness":"FRESH","line1":"1 65386U 25191H   26145.12230325  .00004811  00000+0  33721-3 0  9994","line2":"2 65386  97.4529  16.5392 0001660  80.8946 279.2468 15.05659678 41779","mean_motion":15.05659678,"eccentricity":0.000166,"inclination_deg":97.4529,"raan_deg":16.5392,"arg_perigee_deg":80.8946,"mean_anomaly_deg":279.2468,"bstar":0.00033721,"rev_number":4177,"period_min":95.639142167424,"perigee_km":548.33148322695,"apogee_km":550.63145255829,"semimajor_km":6927.6184678926,"source":"CELESTRAK","updated_at":"2026-05-25T13:38:20.773252Z"}}